Regional Weather Roundup
Issued by NWS Charleston, SC

Current Version | Previous Version | Text Only | Print | Product List | Glossary Off
Versions: 1 2 3 4 5 6 7 8 9 10 11 12 13 14 15 16 17 18 19 20 21 22 23 24 25 26 27 28 29 30 31 32 33 34 35 36 37 38 39 40 41 42 43 44 45 46 47 48 49 50

105
ASUS42 KCHS 291913
RWRCHS

REGIONAL WEATHER ROUNDUP
NATIONAL WEATHER SERVICE CHARLESTON SC
300 PM EDT MON AUG 29 2016

NOTE: "FAIR" INDICATES FEW OR NO CLOUDS BELOW 12,000 FEET WITH NO
SIGNIFICANT WEATHER AND/OR OBSTRUCTIONS TO VISIBILITY.

NOT ALL STATIONS ARE QUALITY CONTROLLED. USE DATA WITH CAUTION...
ESPECIALLY DEWPOINT OBSERVATIONS.

SCZ027-030-031-034>040-042>050-292000-
...SOUTHEAST SOUTH CAROLINA...

CITY           SKY/WX    TMP DP  RH WIND       PRES   REMARKS
N CHARLESTON   PTSUNNY   89  73  59 NE14G22   30.04F HX  97
WATERFRONT PRK   N/A     85  77  76 E10       30.03F HX  95
MOUNT PLEASANT FAIR      86  75  70 NE6       30.05F HX  95
JOHNS ISLAND     N/A     88  77  70 E9        30.04F HX 100
PINOPOLIS        N/A     82  75  78 NE6       30.00F
MONCKS CORNER  FAIR      84  73  70 N7        30.05F HX  91
SUMMERVILLE    NOT AVBL
BEAUFORT MCAS  PTSUNNY   89  71  55 CALM      30.04F HX  95
BEAUFORT ARPT  MOCLDY    86  73  66 E5        30.04F HX  93
HILTON HEAD IS MOSUNNY   91  77  62 NE8       30.05F HX 105
WALTERBORO     MOCLDY    88  72  58 SE7       30.06F HX  94
ALLENDALE      FAIR      90  72  55 VRB6      30.04F HX  96

...SOUTHERN MIDLANDS AND PEE DEE...

CITY           SKY/WX    TMP DP  RH WIND       PRES   REMARKS
GEORGETOWN     FAIR      82  73  74 CALM      30.08S
KINGSTREE      CLOUDY    86  68  54 CALM      30.06S
ORANGEBURG     MOSUNNY   92  69  47 E10       30.05F HX  97
BARNWELL       NOT AVBL
AIKEN          LGT RAIN  79  73  83 CALM      30.12F
MANNING        FAIR      88  70  55 N7        30.06F HX  92
COLUMBIA       RAIN      79  75  87 SE6       30.08S
SUMTER         PTSUNNY   88  70  54 NE7       30.04F HX  93
FLORENCE       MOSUNNY   91  70  49 N10       30.07F HX  96
MYRTLE BEACH   PTSUNNY   82  68  61 NE12      30.10R
N MYRTLE BEACH CLOUDY    80  76  87 CALM      30.07F

$$

GAZ063-065-086>088-099>101-113>116-118-119-134>141-150-292000-
...SOUTHEAST GEORGIA...

CITY           SKY/WX    TMP DP  RH WIND       PRES   REMARKS
SAVANNAH ARPT  CLOUDY    89  71  55 VRB3      30.03F HX  95
HUNTER AAF     MOSUNNY   87  78  75 E10       30.01F HX 100
FORT STEWART   CLOUDY    88  73  61 NE9       30.00F HX  95
STATESBORO     MOSUNNY   91  70  50 E6        30.05F HX  96
SYLVANIA       NOT AVBL
CLAXTON        FAIR      91  72  55 N12G17    30.03F HX  98

...CSRA...CENTRAL AND FAR SOUTHEAST GEORGIA...

CITY           SKY/WX    TMP DP  RH WIND       PRES   REMARKS
THOMSON        MOSUNNY   93  73  52 MISG      30.11F HX 101
AUGUSTA-BUSH   MOSUNNY   94  68  42 N12       30.04F HX  98
AUGUSTA-DANIEL MOSUNNY   94  69  44 VRB7      30.07F HX  99
SWAINSBORO     MOCLDY    90  68  48 E10G16    30.06F HX  93
VIDALIA        MOSUNNY   91  72  52 NE9       30.04F HX  98
EASTMAN        FAIR      96  47  19 E8        30.05F HX  92
HAZLEHURST     FAIR      94  69  44 E10       30.01F HX  99
ALMA           MOSUNNY   89  72  56 E15G22    30.02F HX  96
WAYCROSS         N/A     96  71  44 E9G17     30.00F HX 104
JESUP          MOCLDY    86  81  84 NE8       30.02F HX 102
BAXLEY         LGT RAIN  90  79  70 N7G21     30.02F HX 105
BRUNSWICK      MOSUNNY   90  77  66 E13       30.03F HX 102
SAINT SIMONS   MOSUNNY   89  73  59 E15       30.03F HX  97

$$

SCZ027-028-034-036>038-045-046-048>050-GAZ119-141-292000-
...LAKE AND SUPPLEMENTAL COASTAL OBSERVATIONS...

STATION/POSITION TIME  TEMP    WIND        PRES    WAVE   SWELL
                       AIR SEA DIR/SP/G            HT/PER HT/PER/DIR
                 (UTC) (F)     (DEG/KT/KT) (MB)    (FT/S) (FT/S/D)
WINYAH BAY       NOT AVBL
LAKE MURRAY      1800   84      80/  3/  5 1018.6F
ACE BASIN NERRS  NOT AVBL
FORT PULASKI     1800   83 86   60/ 12/ 14 1018.2F
SAPELO ISLAND    1800   89      60/ 12     1017.0S

$$

ANZ835-935-AMZ111-154-330-350-352-354-370-450-454-472-292000-
...C-MAN AND BUOY OBSERVATIONS...

STATION/POSITION TIME  TEMP    WIND        PRES    WAVE   SWELL
                       AIR SEA DIR/SP/G            HT/PER HT/PER/DIR
                 (UTC) (F)     (DEG/KT/KT) (MB)    (FT/S) (FT/S/D)
BUOY 41004       1850   83 85   60/ 10/ 10 1016.7F   3/13   3/ 90/13
BUOY 41008       1850   84 85   80/ 12/ 14 1016.7F   4/13   3/110/13
FOLLY BEACH CMAN 1900   84      60/ 12/ 14 1017.7F
CAPERS NEARSHORE 1808   82 84   50/ 12/ 16 1017.9F
FRIPP NEARSHORE  1808   83 85   70/ 10/ 14 1017.4S


STATION/POSITION TIME  TEMP    WIND        PRES    WAVE   SWELL
                       AIR SEA DIR/SP/G            HT/PER HT/PER/DIR
                 (UTC) (F)     (DEG/KT/KT) (MB)    (FT/S) (FT/S/D)
5E ST. MARYS GA  1801      85                N/A     4/14   2/100/14
FRYING PAN BUOY  1800   83 85   30/ 10/ 14 1017.5F
BUOY 41025       1850   83 84   40/ 16/ 17 1017.1F   6/ 8   5/ 90/ 8
CAPE LOOKOUT NC  1900   84      30/ 13/ 15 1017.2F
BUOY 41002       1850   83 85  280/ 10/ 10 1015.9F   4/13   5/100/13
BUOY 41010       NOT AVBL
ST AUGUSTINE FL  1900   81 85   50/ 16/ 19 1016.2F


$$




USA.gov is the U.S. government's official web portal to all federal, state and local government web resources and services.